When you browse on this site, cookies collect data to enhance your experience and personalize the content and advertising you see.
Visit our Privacy Policy to learn more. By continuing to use the site, you agree to this use of cookies and data.
  • In Germany
  • List of Countries
  • For 7 days
  • Water Temperature
  • Satellite Maps
  • Weather Map
  • Weather Widgets
  • user-avatar
    Login

    Hourly Weather Linares

    Today, 19 November, Monday

    Time Temperature Precipitation Wind Pressure Humidity
    00:00 +15°C° 0 mm 2 mps 746 mmHg 59%
    01:00 +15°C° 0 mm 2 mps 746 mmHg 58%
    02:00 +14°C° 0 mm 2 mps 746 mmHg 58%
    03:00 +14°C° 0 mm 2 mps 746 mmHg 58%
    04:00 +13°C° 0 mm 1 mps 746 mmHg 58%
    05:00 +16°C° 0 mm 1 mps 746 mmHg 54%
    06:00 +18°C° 0 mm 2 mps 746 mmHg 50%
    07:00 +20°C° 0 mm 2 mps 746 mmHg 44%
    08:00 +23°C° 0 mm 2 mps 746 mmHg 41%
    09:00 +25°C° 0 mm 2 mps 746 mmHg 38%
    10:00 +27°C° 0 mm 3 mps 747 mmHg 35%
    11:00 +28°C° 0 mm 3 mps 746 mmHg 34%
    12:00 +29°C° 0 mm 3 mps 746 mmHg 32%
    13:00 +30°C° 0 mm 3 mps 746 mmHg 31%
    14:00 +30°C° 0 mm 3 mps 746 mmHg 33%
    15:00 +30°C° 0 mm 3 mps 746 mmHg 34%
    16:00 +29°C° 0 mm 3 mps 746 mmHg 36%
    17:00 +26°C° 0 mm 3 mps 746 mmHg 44%
    18:00 +24°C° 0 mm 2 mps 747 mmHg 52%
    19:00 +20°C° 0 mm 2 mps 747 mmHg 61%
    20:00 +19°C° 0 mm 2 mps 747 mmHg 62%
    21:00 +18°C° 0 mm 2 mps 747 mmHg 64%
    22:00 +16°C° 0 mm 2 mps 748 mmHg 65%
    23:00 +16°C° 0 mm 2 mps 748 mmHg 65%

    Tomorrow, 20 November, Tuesday

    Time Temperature Precipitation Wind Pressure Humidity
    00:00 +15°C° 0 mm 2 mps 747 mmHg 64%
    01:00 +15°C° 0 mm 2 mps 747 mmHg 63%
    02:00 +15°C° 0 mm 2 mps 747 mmHg 63%
    03:00 +14°C° 0 mm 1 mps 747 mmHg 63%
    04:00 +14°C° 0 mm 1 mps 747 mmHg 63%
    05:00 +16°C° 0 mm 1 mps 747 mmHg 59%
    06:00 +19°C° 0 mm 2 mps 747 mmHg 54%
    07:00 +21°C° 0 mm 2 mps 747 mmHg 50%
    08:00 +24°C° 0 mm 2 mps 747 mmHg 46%
    09:00 +26°C° 0 mm 2 mps 747 mmHg 42%
    10:00 +28°C° 0 mm 2 mps 747 mmHg 37%
    11:00 +29°C° 0 mm 2 mps 747 mmHg 35%
    12:00 +30°C° 0 mm 3 mps 747 mmHg 32%
    13:00 +31°C° 0 mm 3 mps 747 mmHg 30%
    14:00 +30°C° 0 mm 3 mps 747 mmHg 32%
    15:00 +30°C° 0 mm 3 mps 747 mmHg 33%
    16:00 +29°C° 0 mm 3 mps 747 mmHg 35%
    17:00 +26°C° 0 mm 3 mps 747 mmHg 46%
    18:00 +23°C° 0 mm 2 mps 747 mmHg 58%
    19:00 +19°C° 0 mm 2 mps 748 mmHg 69%
    20:00 +18°C° 0 mm 2 mps 748 mmHg 72%
    21:00 +17°C° 0 mm 2 mps 748 mmHg 75%
    22:00 +16°C° 0 mm 2 mps 748 mmHg 78%
    23:00 +16°C° 0 mm 2 mps 748 mmHg 79%

    Day after tomorrow, 21 November, Wednesday

    Time Temperature Precipitation Wind Pressure Humidity
    00:00 +15°C° 0 mm 2 mps 748 mmHg 79%
    01:00 +15°C° 0 mm 2 mps 748 mmHg 79%
    02:00 +14°C° 0 mm 1 mps 748 mmHg 79%
    03:00 +14°C° 0 mm 1 mps 748 mmHg 79%
    04:00 +14°C° 0 mm 1 mps 748 mmHg 78%
    05:00 +16°C° 0 mm 1 mps 748 mmHg 71%
    06:00 +20°C° 0 mm 1 mps 748 mmHg 64%
    07:00 +22°C° 0 mm 1 mps 748 mmHg 57%
    08:00 +24°C° 0 mm 2 mps 748 mmHg 52%
    09:00 +26°C° 0 mm 2 mps 747 mmHg 46%
    10:00 +28°C° 0 mm 2 mps 747 mmHg 41%
    11:00 +29°C° 0 mm 2 mps 747 mmHg 39%
    12:00 +29°C° 0 mm 3 mps 747 mmHg 37%
    13:00 +30°C° 0 mm 3 mps 747 mmHg 36%
    14:00 +30°C° 0 mm 3 mps 747 mmHg 39%
    15:00 +29°C° 0 mm 4 mps 747 mmHg 42%
    16:00 +28°C° 0 mm 5 mps 747 mmHg 45%
    17:00 +25°C° 0 mm 4 mps 747 mmHg 57%
    18:00 +22°C° 0 mm 3 mps 748 mmHg 68%
    19:00 +19°C° 0 mm 2 mps 748 mmHg 80%
    20:00 +18°C° 0 mm 2 mps 748 mmHg 84%
    21:00 +18°C° 0 mm 2 mps 748 mmHg 88%
    22:00 +18°C° 0 mm 1 mps 748 mmHg 93%
    23:00 +18°C° 0 mm 1 mps 748 mmHg 92%

    22 November, Thursday

    Time Temperature Precipitation Wind Pressure Humidity
    00:00 +18°C° 0 mm 1 mps 748 mmHg 92%
    01:00 +16°C° 0 mm 1 mps 747 mmHg 92%
    02:00 +16°C° 0 mm 1 mps 747 mmHg 91%
    03:00 +16°C° 0 mm 1 mps 747 mmHg 91%
    04:00 +16°C° 0 mm 1 mps 747 mmHg 91%
    05:00 +17°C° 0 mm 2 mps 747 mmHg 84%
    06:00 +18°C° 0 mm 2 mps 748 mmHg 77%
    07:00 +20°C° 0 mm 3 mps 748 mmHg 71%
    08:00 +21°C° 0 mm 3 mps 748 mmHg 65%
    09:00 +24°C° 0 mm 3 mps 748 mmHg 60%
    10:00 +25°C° 0 mm 4 mps 747 mmHg 55%
    11:00 +26°C° 0 mm 4 mps 747 mmHg 52%
    12:00 +27°C° 0 mm 4 mps 747 mmHg 49%
    13:00 +28°C° 0 mm 4 mps 747 mmHg 46%
    14:00 +28°C° 0 mm 4 mps 747 mmHg 47%
    15:00 +28°C° 0 mm 4 mps 746 mmHg 48%
    16:00 +27°C° 0 mm 4 mps 746 mmHg 49%
    17:00 +25°C° 0 mm 3 mps 747 mmHg 55%
    18:00 +22°C° 0 mm 3 mps 747 mmHg 60%
    19:00 +20°C° 0 mm 3 mps 747 mmHg 65%
    20:00 +19°C° 0 mm 3 mps 747 mmHg 66%
    21:00 +18°C° 0 mm 2 mps 748 mmHg 66%
    22:00 +17°C° 0 mm 2 mps 748 mmHg 67%
    23:00 +16°C° 0 mm 2 mps 747 mmHg 69%

    23 November, Friday

    Time Temperature Precipitation Wind Pressure Humidity
    00:00 +15°C° 0 mm 2 mps 747 mmHg 71%
    01:00 +15°C° 0 mm 2 mps 747 mmHg 73%
    02:00 +14°C° 0 mm 2 mps 746 mmHg 74%
    03:00 +14°C° 0 mm 2 mps 746 mmHg 76%
    04:00 +13°C° 0 mm 2 mps 746 mmHg 78%
    05:00 +15°C° 0 mm 2 mps 746 mmHg 70%
    06:00 +17°C° 0 mm 2 mps 746 mmHg 63%
    07:00 +19°C° 0 mm 2 mps 747 mmHg 56%
    08:00 +23°C° 0 mm 2 mps 747 mmHg 50%
    09:00 +25°C° 0 mm 3 mps 746 mmHg 43%
    10:00 +27°C° 0 mm 3 mps 746 mmHg 37%
    11:00 +29°C° 0 mm 3 mps 746 mmHg 34%
    12:00 +30°C° 0 mm 3 mps 746 mmHg 30%
    13:00 +32°C° 0 mm 4 mps 745 mmHg 27%
    14:00 +30°C° 0 mm 4 mps 745 mmHg 27%
    15:00 +30°C° 0 mm 4 mps 745 mmHg 28%
    16:00 +29°C° 0 mm 4 mps 745 mmHg 28%
    17:00 +27°C° 0 mm 3 mps 746 mmHg 34%
    18:00 +24°C° 0 mm 3 mps 746 mmHg 40%
    19:00 +20°C° 0 mm 2 mps 746 mmHg 47%
    20:00 +19°C° 0 mm 2 mps 747 mmHg 47%
    21:00 +18°C° 0 mm 2 mps 747 mmHg 48%
    22:00 +17°C° 0 mm 2 mps 747 mmHg 48%
    23:00 +16°C° 0 mm 2 mps 747 mmHg 49%

    24 November, Saturday

    Time Temperature Precipitation Wind Pressure Humidity
    00:00 +15°C° 0 mm 2 mps 746 mmHg 50%
    01:00 +15°C° 0 mm 2 mps 746 mmHg 50%
    02:00 +14°C° 0 mm 2 mps 746 mmHg 50%
    03:00 +14°C° 0 mm 2 mps 746 mmHg 51%
    04:00 +13°C° 0 mm 2 mps 746 mmHg 51%
    05:00 +15°C° 0 mm 2 mps 746 mmHg 48%
    06:00 +17°C° 0 mm 2 mps 746 mmHg 44%
    07:00 +19°C° 0 mm 2 mps 746 mmHg 41%
    08:00 +22°C° 0 mm 3 mps 746 mmHg 37%
    09:00 +25°C° 0 mm 3 mps 746 mmHg 34%
    10:00 +27°C° 0 mm 3 mps 746 mmHg 30%
    11:00 +28°C° 0 mm 4 mps 746 mmHg 28%
    12:00 +30°C° 0 mm 4 mps 745 mmHg 26%
    13:00 +32°C° 0 mm 4 mps 745 mmHg 25%
    14:00 +30°C° 0 mm 4 mps 745 mmHg 26%
    15:00 +30°C° 0 mm 4 mps 745 mmHg 27%
    16:00 +30°C° 0 mm 4 mps 745 mmHg 28%
    17:00 +27°C° 0 mm 3 mps 745 mmHg 36%
    18:00 +24°C° 0 mm 3 mps 745 mmHg 44%
    19:00 +20°C° 0 mm 2 mps 746 mmHg 51%
    20:00 +19°C° 0 mm 2 mps 746 mmHg 52%
    21:00 +19°C° 0 mm 2 mps 746 mmHg 53%
    22:00 +18°C° 0 mm 2 mps 746 mmHg 54%
    23:00 +17°C° 0 mm 2 mps 746 mmHg 56%
    Show more